Dewpoint
-6 -6 -6 -6 -6 -6 -5 -5 -3 -1 -4 -7 -1 1 1 1 0 -1 -2 -5 -8 -16 -15 -15 -15 -16 -16 -14 -12 -10 -14 -12 1 4 -0 -1 -2 -3
-5 -5 -5 -5 -6 -5 -5 -4 -4 -2 -1 -6 -7 -6 -7 -10 -11 -12 -14 -15 -15 -13 -13 -10 -11 -12 -14 -15 -14 -13 -1 1 2 1 2 3 4 4
-4 -3 -3 -4 -5 -5 -5 -5 -5 -4 -4 -7 -7 -8 -8 -9 -9 -9 -10 -12 -13 -11 -6 -6 -7 -8 -9 -9 -8 -7 -7 1 2 2 2 2 3 4
-7 -6 -6 -5 -5 -5 -5 -5 -5 -5 -5 -6 -6 -7 -7 -7 -7 -7 -8 -10 -11 -11 -10 -6 -6 -7 -9 -11 -11 -5 -0 0 1 1 2 2 2 1
-13 -14 -13 -12 -11 -9 -8 -7 -6 -5 -5 -5 -6 -6 -7 -7 -7 -7 -6 -7 -8 -8 -5 -5 -6 -7 -9 -10 -11 -11 -3 -0 1 1 1 1 1 2
-23 -23 -22 -20 -19 -16 -14 -12 -10 -9 -7 -6 -7 -7 -7 -7 -7 -8 -9 -6 -6 -7 -8 -7 -7 -7 -8 -9 -9 -9 -8 -7 -2 1 1 1 0 1
-27 -27 -28 -27 -25 -22 -20 -18 -15 -13 -11 -10 -11 -12 -13 -12 -9 -9 -10 -10 -10 -8 -7 -6 -6 -7 -8 -8 -8 -8 -10 -11 -11 -9 -2 -0 0 -0
-21 -25 -26 -27 -26 -24 -22 -22 -20 -18 -17 -14 -15 -17 -20 -18 -15 -13 -12 -12 -13 -13 -11 -12 -9 -9 -8 -7 -8 -8 -9 -10 -10 -10 -12 -13 -7 -3
-21 -23 -24 -25 -25 -25 -24 -23 -22 -21 -21 -19 -19 -21 -19 -20 -17 -17 -14 -12 -13 -15 -9 -16 -17 -18 -16 -12 -8 -8 -8 -9 -9 -9 -10 -11 -13 -7
-17 -21 -23 -24 -23 -22 -22 -22 -22 -21 -21 -20 -19 -21 -21 -22 -21 -18 -15 -14 -14 -18 -15 -14 -20 -22 -21 -19 -13 -9 -7 -7 -8 -10 -10 -10 -11 -6
-13 -13 -14 -14 -14 -15 -15 -15 -15 -15 -15 -16 -17 -17 -18 -19 -20 -17 -13 -7 -6 -16 -14 -11 -20 -20 -19 -19 -14 -11 -8 -7 -9 -10 -10 -10 -9 -6
-21 -23 -22 -22 -23 -24 -24 -24 -25 -30 -26 -23 -19 -17 -15 -15 -16 -16 -15 -11 -6 -4 -12 -14 -13 -11 -15 -13 -13 -10 -9 -8 -8 -8 -8 -8 -8 -7
-20 -24 -25 -24 -22 -21 -21 -20 -21 -20 -20 -18 -19 -19 -18 -16 -14 -14 -13 -10 -9 -9 -8 -7 -9 -6 -6 -9 -16 -15 -9 -8 -6 -6 -6 -8 -9 -10
-15 -16 -19 -19 -18 -17 -16 -17 -17 -16 -15 -14 -12 -14 -14 -15 -14 -11 -11 -11 -10 -10 -9 -5 -5 -5 -5 -5 -5 -7 -10 -12 -11 -8 -6 -6 -7 -10
-13 -13 -14 -13 -16 -16 -15 -14 -12 -13 -13 -10 -10 -11 -11 -11 -8 -9 -10 -8 -7 -9 -9 -5 -5 -5 -6 -6 -6 -5 -5 -6 -6 -9 -9 -7 -6 -6
-13 -14 -13 -13 -13 -13 -14 -15 -14 -12 -10 -10 -9 -10 -10 -7 -8 -8 -6 -6 -5 -6 -7 -7 -6 -6 -6 -7 -7 -7 -8 -6 -6 -6 -6 -9 -7 -6
-11 -12 -12 -11 -11 -11 -13 -13 -13 -12 -11 -10 -9 -9 -8 -7 -7 -7 -7 -7 -7 -7 -8 -9 -8 -7 -8 -10 -8 -8 -7 -8 -9 -8 -7 -7 -8 -7
-6 -8 -8 -7 -6 -7 -7 -12 -11 -10 -9 -8 -8 -7 -6 -7 -8 -7 -7 -7 -8 -8 -8 -10 -9 -8 -9 -8 -8 -9 -9 -9 -9 -9 -7 -7 -7 -7
-6 -7 -7 -6 -6 -7 -7 -7 -7 -7 -7 -7 -8 -8 -8 -7 -7 -8 -9 -9 -9 -9 -9 -9 -9 -9 -7 -7 -9 -8 -8 -9 -8 -8 -8 -8 -7 -8
-7 -6 -7 -7 -7 -7 -7 -8 -8 -9 -9 -9 -10 -10 -9 -9 -9 -9 -8 -8 -8 -8 -7 -8 -9 -9 -7 -7 -8 -9 -7 -7 -7 -7 -7 -8 -8 -7
-8 -7 -8 -8 -8 -8 -8 -9 -9 -10 -10 -10 -10 -9 -10 -10 -9 -9 -9 -8 -8 -8 -8 -8 -8 -9 -7 -7 -7 -8 -9 -8 -7 -7 -7 -7 -8 -8
-8 -8 -8 -9 -9 -9 -9 -9 -9 -9 -9 -10 -10 -10 -10 -9 -9 -9 -9 -9 -8 -8 -9 -9 -9 -8 -7 -7 -7 -7 -7 -7 -7 -7 -8 -8 -8 -8
-9 -9 -9 -9 -9 -9 -9 -9 -9 -10 -10 -9 -9 -9 -10 -9 -9 -9 -8 -8 -8 -8 -8 -8 -8 -7 -7 -7 -7 -7 -7 -7 -7 -8 -8 -8 -8 -8
Wind_Speed
8 8 9 8 8 9 10 11 11 8 14 4 6 8 9 11 14 18 21 22 22 20 17 18 19 19 18 18 17 19 19 20 18 17 19 18 18 18
9 10 10 9 10 11 11 12 12 13 14 12 11 13 17 19 18 19 20 20 18 18 16 15 15 16 17 18 20 19 14 14 16 18 19 15 16 14
11 12 12 12 12 12 13 13 14 16 21 23 21 17 17 17 16 17 19 19 19 17 15 15 16 16 15 16 16 15 16 13 14 17 19 17 18 19
12 14 13 14 14 14 14 15 16 16 20 24 23 20 18 16 17 18 16 16 17 16 16 15 14 16 17 18 17 15 14 15 16 17 18 21 21 21
13 14 14 15 15 15 15 16 16 17 19 24 25 23 21 18 18 16 16 16 15 15 13 15 17 18 17 17 17 18 19 18 17 18 20 20 21 22
13 14 14 15 15 15 16 16 16 17 18 22 24 25 23 21 19 20 19 16 18 17 18 17 17 15 12 12 13 15 17 19 22 24 23 22 21 23
14 14 14 14 15 15 16 16 16 18 19 19 22 23 23 22 20 19 21 21 21 21 19 16 16 16 16 18 20 21 20 21 23 23 23 24 25 24
17 16 15 14 14 15 15 16 16 17 18 19 19 20 19 19 18 19 21 22 25 20 19 21 22 24 22 20 21 21 20 20 21 20 21 23 24 23
17 18 17 15 15 15 15 15 16 17 17 20 21 21 22 21 21 22 22 22 26 26 27 32 28 26 21 21 22 21 19 17 17 18 20 19 19 18
19 18 18 17 16 17 18 19 19 19 19 21 24 24 25 24 25 25 25 27 29 28 25 34 31 30 25 22 20 22 22 21 21 21 20 20 19 19
19 19 20 21 20 21 23 24 25 26 24 24 25 25 25 24 24 25 27 26 28 29 27 27 31 28 26 22 17 18 19 19 18 18 18 19 16 17
22 21 21 22 22 22 24 25 28 28 26 26 27 28 27 26 24 25 27 29 30 32 23 17 23 20 21 23 18 15 14 11 9 11 14 15 17 19
25 26 25 24 25 26 25 27 28 27 27 27 29 30 30 30 29 27 27 29 31 34 30 25 31 27 21 28 33 28 24 24 25 25 24 24 24 24
28 29 29 29 30 30 29 28 26 26 28 29 29 31 32 32 31 29 28 27 26 31 30 26 28 25 25 30 35 34 33 31 31 29 27 28 27 26
28 31 32 33 33 32 31 31 30 32 30 29 31 32 32 31 28 26 23 21 22 25 29 25 27 28 29 34 36 35 35 39 35 34 33 31 32 31
29 31 31 31 31 34 35 35 34 32 31 31 32 31 30 26 26 24 24 23 23 26 24 26 27 26 28 31 33 36 36 35 31 33 32 32 30 30
28 31 32 32 33 34 34 32 29 25 25 26 27 27 28 28 29 25 23 25 28 31 33 33 30 29 31 31 35 36 34 38 39 36 34 37 35 31
24 29 30 28 26 26 28 29 30 28 27 25 26 27 28 27 29 29 29 29 33 34 34 32 31 31 33 34 33 35 35 36 34 35 35 38 40 35
23 26 27 28 28 26 27 26 29 30 27 26 26 28 29 30 33 35 33 30 32 34 33 30 31 30 28 32 34 30 31 31 32 32 30 30 33 31
23 25 27 28 29 30 32 31 32 33 32 33 33 32 32 32 32 31 30 28 28 29 29 28 29 29 29 34 34 32 30 32 30 28 28 26 27 25
26 27 28 30 33 33 32 31 33 33 31 31 30 29 30 30 32 32 31 28 27 29 33 34 30 30 28 28 33 36 35 31 28 28 25 25 26 26
24 26 29 29 30 31 30 29 30 31 33 32 31 30 31 30 31 31 29 29 28 29 31 31 30 27 31 31 32 34 33 29 28 24 21 23 24 19
30 30 27 29 30 30 30 30 30 32 31 30 31 32 30 30 30 29 29 28 29 28 28 31 30 28 33 27 28 30 27 25 24 22 21 23 27 23
Wind_Direction
288 288 290 288 285 282 281 288 291 301 314 296 237 239 253 266 279 284 286 288 292 294 295 294 293 288 285 282 280 278 276 259 260 267 270 271 268 265
279 281 284 283 279 277 276 275 276 277 273 278 271 269 274 282 285 286 287 288 287 286 290 293 295 289 286 291 286 282 277 269 263 261 265 269 270 267
280 279 282 282 280 278 275 274 273 273 277 285 288 292 292 296 294 293 296 294 291 291 290 295 291 285 286 286 285 280 272 261 262 265 266 260 256 251
279 277 277 276 277 278 276 275 272 270 274 282 289 293 293 295 298 298 298 293 290 288 288 291 295 297 293 287 282 268 265 264 256 254 259 260 261 259
278 279 282 279 279 276 274 274 274 275 275 280 287 292 294 295 293 291 291 290 290 289 288 289 300 303 293 291 288 276 262 261 258 258 257 261 262 262
281 282 282 282 282 280 278 277 276 275 275 277 284 290 293 297 296 297 288 285 281 278 282 286 290 295 297 302 298 288 280 275 260 256 258 262 265 262
284 285 284 283 281 280 279 280 279 279 280 281 284 290 292 300 303 301 294 293 287 289 285 282 279 274 286 291 291 289 282 278 274 266 260 261 263 262
279 278 279 280 281 281 282 283 283 283 285 287 289 289 295 300 305 302 300 301 303 298 296 283 280 279 281 283 284 286 283 278 275 274 270 266 262 264
280 281 280 279 278 277 276 277 277 280 282 285 285 287 292 296 297 296 294 292 290 293 293 291 292 289 287 284 281 278 276 273 272 276 278 274 275 260
280 281 281 280 280 282 281 279 278 277 279 282 284 287 290 291 292 292 291 289 287 288 290 291 294 294 295 287 278 273 270 271 275 276 273 274 271 251
275 276 276 276 277 277 278 279 279 277 277 280 282 282 281 283 286 288 286 286 285 289 293 293 296 298 295 292 282 275 271 272 272 271 274 276 271 258
281 280 277 280 281 279 279 280 278 281 284 281 278 278 279 279 277 276 278 276 276 285 291 274 289 299 302 291 283 266 261 264 274 286 281 277 275 271
282 283 280 279 278 279 277 277 281 287 285 283 283 282 282 280 278 276 274 273 271 267 267 269 278 283 278 282 284 276 268 267 272 276 276 277 277 274
284 289 289 285 284 284 280 278 279 282 283 285 285 286 287 287 287 287 281 274 267 265 267 263 268 268 273 277 281 285 285 285 284 274 272 272 271 270
286 288 289 287 286 282 280 280 282 283 284 282 282 281 288 287 285 281 279 276 273 271 267 260 262 267 268 270 274 277 284 285 285 283 278 274 269 267
289 286 284 284 281 279 280 281 282 283 283 282 281 284 290 284 282 280 281 281 280 276 272 274 276 274 270 273 277 278 275 270 275 279 280 275 270 266
293 290 289 287 285 283 281 279 278 277 281 279 279 280 284 284 280 281 280 280 278 277 279 278 275 273 281 280 273 274 268 270 274 276 280 279 276 268
277 276 279 280 283 285 287 288 287 286 288 288 283 281 281 281 282 282 283 280 279 278 277 277 277 281 283 279 272 270 269 270 273 277 272 271 274 273
269 270 274 276 277 279 281 281 285 289 295 288 283 282 282 280 282 286 288 285 280 278 274 270 275 275 269 268 278 271 272 274 279 275 274 270 268 271
272 271 272 275 276 279 281 284 287 288 287 287 284 281 280 282 284 281 280 277 272 272 271 273 271 268 260 269 275 278 275 275 272 270 272 274 276 273
275 274 275 278 280 280 281 283 283 287 288 286 284 283 284 283 282 281 281 276 271 271 270 272 276 289 275 283 269 273 278 277 274 271 271 269 271 267
281 282 283 282 281 283 285 285 284 284 284 283 281 281 282 280 278 278 277 276 275 276 275 275 282 281 270 278 267 275 279 278 275 269 264 258 255 251
286 284 285 285 283 281 283 285 285 284 282 280 280 285 283 279 280 279 278 277 278 282 280 282 282 277 282 276 278 276 274 274 271 262 258 254 254 253
Height
1472 1471 1471 1470 1469 1469 1468 1468 1469 1468 1465 1464 1464 1464 1463 1463 1462 1460 1459 1458 1457 1455 1454 1452 1451 1450 1449 1448 1447 1447 1447 1448 1450 1451 1452 1453 1453 1454
1469 1469 1468 1468 1467 1466 1466 1466 1465 1466 1464 1461 1462 1462 1461 1459 1458 1456 1454 1453 1452 1450 1450 1448 1447 1446 1445 1444 1443 1442 1442 1443 1444 1445 1446 1448 1449 1450
1466 1466 1465 1464 1463 1463 1463 1462 1462 1462 1460 1457 1457 1457 1456 1455 1454 1452 1450 1449 1447 1446 1445 1445 1443 1442 1441 1440 1438 1438 1438 1438 1439 1441 1441 1443 1444 1445
1463 1462 1462 1461 1460 1459 1459 1458 1458 1458 1456 1454 1453 1453 1451 1451 1449 1447 1447 1445 1443 1442 1441 1441 1440 1439 1438 1436 1434 1434 1434 1434 1434 1435 1436 1437 1438 1438
1458 1458 1457 1456 1455 1455 1454 1453 1453 1453 1453 1450 1448 1448 1447 1446 1444 1444 1442 1441 1440 1438 1437 1436 1435 1434 1433 1432 1431 1430 1429 1429 1430 1430 1430 1431 1432 1433
1454 1453 1452 1451 1450 1450 1449 1449 1448 1447 1447 1446 1444 1443 1442 1442 1441 1438 1437 1436 1435 1435 1433 1432 1431 1430 1428 1428 1427 1426 1425 1425 1424 1424 1425 1426 1427 1427
1450 1449 1448 1447 1446 1445 1444 1444 1443 1442 1442 1441 1440 1439 1437 1437 1436 1435 1432 1431 1429 1428 1427 1427 1426 1425 1425 1425 1422 1420 1419 1419 1419 1419 1418 1419 1421 1422
1446 1445 1444 1443 1442 1442 1441 1440 1440 1438 1438 1437 1436 1435 1434 1433 1432 1431 1429 1427 1424 1424 1421 1420 1420 1420 1419 1418 1417 1415 1414 1413 1412 1413 1414 1413 1413 1414
1441 1440 1439 1438 1437 1436 1436 1436 1435 1435 1434 1433 1432 1431 1430 1429 1427 1426 1425 1424 1421 1420 1416 1411 1412 1412 1413 1411 1410 1408 1408 1408 1408 1407 1408 1408 1408 1407
1435 1434 1434 1434 1433 1431 1430 1430 1430 1429 1429 1429 1427 1427 1425 1425 1423 1421 1419 1417 1414 1413 1413 1405 1406 1403 1404 1404 1403 1401 1401 1401 1402 1402 1402 1402 1402 1403
1429 1429 1427 1427 1427 1425 1423 1422 1422 1422 1423 1422 1420 1420 1420 1419 1417 1414 1413 1412 1408 1407 1406 1402 1399 1398 1396 1396 1396 1396 1395 1395 1395 1396 1397 1397 1396 1397
1424 1423 1422 1421 1420 1419 1417 1415 1413 1413 1414 1413 1412 1412 1411 1410 1410 1408 1406 1404 1403 1399 1399 1400 1396 1396 1392 1389 1390 1390 1390 1390 1390 1390 1392 1393 1393 1393
1416 1415 1415 1415 1413 1411 1410 1409 1407 1406 1405 1404 1403 1402 1401 1401 1401 1401 1399 1396 1394 1391 1393 1393 1390 1390 1391 1386 1384 1386 1386 1385 1384 1384 1385 1386 1387 1387
1407 1407 1406 1406 1405 1404 1403 1401 1399 1398 1396 1395 1395 1392 1391 1390 1390 1389 1388 1386 1385 1383 1384 1385 1383 1383 1383 1380 1377 1377 1377 1377 1377 1377 1378 1379 1379 1380
1399 1398 1396 1396 1395 1394 1395 1394 1392 1390 1389 1387 1385 1383 1383 1381 1380 1378 1378 1377 1376 1375 1374 1375 1375 1375 1375 1373 1371 1369 1369 1367 1368 1368 1369 1370 1370 1371
1392 1390 1387 1386 1385 1385 1384 1384 1383 1381 1380 1378 1376 1375 1374 1372 1371 1371 1370 1369 1368 1366 1367 1367 1367 1367 1366 1365 1364 1361 1361 1361 1359 1359 1359 1359 1361 1361
1383 1381 1379 1377 1375 1374 1374 1373 1373 1372 1371 1370 1369 1367 1366 1365 1363 1363 1362 1361 1359 1357 1356 1357 1358 1358 1357 1356 1354 1352 1351 1350 1350 1351 1351 1348 1348 1350
1374 1372 1370 1369 1366 1365 1363 1361 1362 1362 1361 1361 1360 1359 1357 1357 1355 1354 1353 1352 1350 1348 1346 1346 1348 1348 1345 1342 1344 1341 1341 1340 1341 1341 1341 1339 1337 1338
1365 1364 1364 1362 1360 1360 1358 1355 1353 1354 1353 1352 1351 1349 1348 1347 1346 1344 1343 1341 1338 1336 1335 1337 1338 1338 1336 1332 1331 1333 1332 1332 1332 1332 1332 1330 1328 1329
1356 1355 1354 1354 1353 1352 1350 1348 1346 1345 1344 1343 1341 1340 1339 1338 1336 1334 1333 1331 1330 1328 1326 1326 1327 1327 1327 1324 1322 1323 1323 1323 1323 1323 1323 1323 1322 1323
1348 1346 1346 1345 1344 1343 1341 1339 1337 1335 1334 1332 1330 1329 1329 1328 1326 1324 1323 1323 1322 1320 1318 1316 1317 1319 1317 1317 1314 1311 1311 1314 1314 1315 1315 1315 1314 1314
1338 1337 1337 1336 1335 1333 1331 1330 1328 1326 1324 1322 1321 1321 1319 1319 1316 1315 1314 1313 1312 1311 1310 1309 1310 1309 1309 1308 1306 1304 1303 1305 1306 1306 1307 1308 1308 1307
1329 1329 1327 1326 1325 1324 1322 1320 1318 1316 1314 1312 1311 1310 1309 1308 1307 1306 1305 1304 1303 1302 1301 1300 1300 1300 1299 1298 1298 1296 1296 1297 1297 1298 1299 1300 1301 1302